Regional Weather Roundup
Issued by NWS Albany, NY

Home | Current Version | Previous Version | Text Only | Print | Product List | Glossary On
Versions: 1 2 3 4 5 6 7 8 9 10 11 12 13 14 15 16 17 18 19 20 21 22 23 24 25 26 27
000
ASUS41 KALY 291511
RWRALY
NEW YORK STATE HOURLY WEATHER ROUNDUP
NATIONAL WEATHER SERVICE ALBANY NY
1100 AM EDT WED MAR 29 2017

NOTE: "FAIR" INDICATES FEW OR NO CLOUDS BELOW 12,000 FEET WITH NO
SIGNIFICANT WEATHER AND/OR NO OBSTRUCTIONS TO VISIBILITY.

NYZ032-033-038>043-046>054-057>081-291600-
EAST


CITY           SKY/WX    TMP DP  RH WIND       PRES   REMARKS
ALBANY         CLOUDY    40  35  83 N6        30.14R
GLENS FALLS    CLOUDY    39  33  79 N3        30.14R
POUGHKEEPSIE   PTSUNNY   48  32  53 N10G20    30.09R
NEWBURGH       MOSUNNY   48  36  61 N17       30.10R
MONTGOMERY     MOSUNNY   50  34  54 N5        30.08S
WHITE PLAINS   PTSUNNY   49  35  58 N18G25    30.06R
ISLIP          MOSUNNY   51  37  58 NW16G23   30.04R
NEW YORK CITY  PTSUNNY   49  36  61 NW9       30.08R
CENTRAL PARK   CLOUDY    48  37  65 N8        30.11R
$$

NYZ005>009-017-018-044>046-055-056-291600-
CENTRAL


CITY           SKY/WX    TMP DP  RH WIND       PRES   REMARKS
FULTON         CLOUDY    43  25  49 NW13G20   30.24S
SYRACUSE       MOSUNNY   44  25  47 N12       30.23S
ROME           CLOUDY    42  27  55 N9        30.21S
ELMIRA         MOSUNNY   45  28  51 NE17      30.21S
BINGHAMTON     SUNNY     40  26  57 N22G29    30.16R
MONTICELLO     SUNNY     43  30  61 NW17G24   30.11R
$$

NYZ026>034-041>043-291600-
NORTH


CITY           SKY/WX    TMP DP  RH WIND       PRES   REMARKS
WATERTOWN      CLOUDY    41  29  62 N9        30.23S
FORT DRUM      CLOUDY    37  28  70 NW5       30.20F
OGDENSBURG     NOT AVBL
POTSDAM        CLOUDY    36  30  80 NW7       30.21R
MASSENA        CLOUDY    38  27  64 NW9       30.22R
SARANAC LAKE   CLOUDY    33  23  66 VRB6      30.10R
PLATTSBURGH    CLOUDY    39  25  57 NW8       30.16R
$$

NYZ001>004-010>016-019>021-291600-
WEST


CITY           SKY/WX    TMP DP  RH WIND       PRES   REMARKS
NIAGARA FALLS  CLOUDY    48  33  56 CALM      30.26R
BUFFALO        PTSUNNY   47  33  58 VRB5      30.26R
JAMESTOWN      MOSUNNY   43  30  61 NE14G21   30.23R
WELLSVILLE     PTSUNNY   43  30  60 NE13G20   30.21R
DANSVILLE      MOSUNNY   45  34  65 NW9       30.25R
ROCHESTER      CLOUDY    46  29  51 NE8       30.26S
PENN YAN       SUNNY     42  27  55 VRB7      30.24R


             KEY
       WCI = WIND CHILL INDEX
       VSB = VISIBILITY
       HX  = HEAT INDEX




USA.gov is the U.S. government's official web portal to all federal, state and local government web resources and services.